Wind_Speed
32 32 31 31 30 29 29 28 28 27 27 26 26 26 25 25 25 24 24 23 23 23 23 22 22 22 22 22 22 22 22 22 23 23 24 24 24 25 25 26 26 26 26
35 34 33 32 32 31 31 31 31 30 30 29 28 28 27 27 27 26 26 26 26 25 25 24 24 24 24 23 23 23 24 24 24 25 26 26 27 27 28 28 28 28 28
36 36 35 35 34 33 33 34 33 32 32 31 31 30 29 29 29 29 28 28 28 28 28 27 27 27 26 26 26 26 26 27 27 28 28 28 29 29 30 30 30 30 30
37 37 37 37 36 36 35 35 35 34 34 34 33 33 32 32 31 31 31 31 31 30 30 30 30 29 29 28 29 29 29 30 30 30 31 31 31 32 32 32 32 32 32
38 38 38 39 38 38 37 37 37 36 36 36 36 36 35 34 34 33 33 33 33 33 33 33 33 32 32 31 31 32 32 32 32 32 33 33 33 33 33 33 34 34 34
37 39 40 40 40 40 39 39 38 38 37 37 37 37 37 37 37 36 35 36 36 36 36 36 36 36 35 35 34 34 34 34 34 34 34 35 35 35 35 36 36 36 36
36 36 38 40 40 40 41 40 40 40 39 38 39 40 40 39 39 38 37 38 38 38 39 38 38 38 38 37 37 36 36 37 37 37 37 37 37 37 38 38 38 38 39
36 35 36 38 39 38 39 40 40 40 41 40 40 40 41 41 40 40 39 39 39 40 40 41 41 41 40 39 39 39 39 39 39 39 38 38 39 39 40 40 40 40 41
36 37 37 37 38 38 38 39 40 41 41 41 41 41 41 41 40 41 41 41 40 40 40 41 42 42 41 41 41 41 41 41 42 42 42 42 42 42 43 42 42 42 42
36 37 37 38 38 37 38 39 40 40 41 42 41 41 42 43 42 42 41 41 41 41 41 42 43 44 43 43 43 43 43 43 43 43 43 44 44 44 44 44 44 44 44
37 38 38 38 38 38 38 39 40 40 41 42 41 41 41 42 42 43 42 42 41 42 43 44 44 45 45 45 45 45 45 45 45 45 45 46 46 46 46 46 46 47 47
36 38 38 39 38 38 38 38 39 40 40 41 41 41 42 42 42 42 42 41 41 42 43 44 44 45 46 46 46 47 47 46 46 47 47 47 47 47 48 48 48 48 49
36 37 38 39 39 39 39 39 39 38 39 41 42 42 42 42 41 42 43 43 43 43 43 44 45 46 47 47 47 47 47 48 48 48 49 48 48 48 49 49 50 50 50
36 37 37 38 39 40 40 39 39 38 39 40 40 41 41 41 41 42 43 44 44 44 45 45 46 47 47 47 47 47 47 48 49 50 51 50 50 50 51 52 52 52 53
36 36 37 38 39 40 41 42 41 40 40 38 38 40 42 43 43 45 44 44 46 46 46 46 46 46 47 47 46 47 48 49 50 51 52 52 52 53 53 53 54 54 55
37 37 37 38 39 40 41 43 43 43 43 42 41 41 43 44 45 46 46 47 47 47 47 47 48 48 48 49 49 49 50 51 51 52 53 53 54 55 55 56 57 57 57
38 38 38 39 40 40 41 43 44 45 45 45 45 45 45 45 47 47 47 47 47 48 49 49 49 50 50 51 50 51 52 52 53 53 54 54 54 55 56 57 58 58 59
38 39 40 40 40 41 41 42 43 44 45 45 46 46 46 46 46 46 46 47 48 49 49 50 51 51 52 52 53 53 53 53 54 54 54 54 55 56 57 58 58 59 60
38 38 39 40 41 42 42 43 43 43 44 45 46 47 47 47 47 47 48 48 49 49 49 50 50 50 51 52 53 54 54 54 54 55 55 56 57 58 59 59 59 59 60
38 38 38 40 41 42 42 43 44 44 45 46 47 47 47 48 48 48 49 49 49 50 51 51 51 51 52 53 54 54 55 54 55 56 56 57 58 58 59 59 60 60 61
37 37 38 39 41 42 43 44 44 45 45 46 47 47 48 48 48 49 49 49 50 50 51 52 52 53 54 54 55 55 55 55 56 56 57 58 58 58 59 59 60 61 62
37 38 39 39 40 41 42 43 44 44 45 45 46 47 48 48 49 50 50 50 50 51 51 51 52 52 53 54 55 55 56 56 57 57 58 59 59 59 59 60 60 61 62
37 38 38 39 40 42 43 43 43 44 45 46 47 47 47 48 49 49 49 49 49 50 51 51 52 52 53 54 55 55 56 57 57 58 59 58 59 59 59 60 60 60 61
37 38 38 39 40 42 43 43 44 45 46 46 47 47 47 47 48 48 48 48 48 49 50 51 52 53 54 55 55 56 57 57 58 58 59 59 58 58 59 59 60 61 62
37 38 38 39 40 42 43 43 44 45 46 46 46 46 46 46 47 47 48 48 48 49 50 51 52 54 54 55 56 57 57 57 57 58 58 57 57 58 58 58 59 61 62
38 39 39 39 40 41 42 43 44 44 44 44 44 45 45 46 47 47 48 49 49 50 52 52 53 54 54 54 55 56 56 56 56 56 56 57 58 59 59 58 59 60 60
Wind_Direction
240 241 241 241 242 242 244 245 247 249 249 251 250 250 250 251 252 253 256 258 260 262 262 264 267 269 270 271 273 275 276 278 280 281 282 283 284 285 287 288 291 293 294
240 241 241 241 242 243 243 245 247 249 249 252 251 251 250 250 253 254 255 257 259 261 263 264 267 269 270 271 272 274 275 277 279 280 281 282 283 284 286 287 289 290 291
241 242 242 241 243 244 244 245 247 249 250 251 251 251 251 251 252 254 255 256 258 260 262 263 265 267 269 270 272 273 274 276 278 280 281 282 283 283 285 286 287 289 289
242 242 243 243 244 245 245 246 248 249 250 251 250 250 251 252 252 254 255 256 257 259 261 263 264 267 268 270 272 273 275 276 278 280 281 282 282 283 284 285 287 288 288
243 243 244 244 245 246 245 246 248 248 250 250 250 250 251 253 253 254 255 256 257 258 261 263 265 267 268 270 272 274 275 276 278 280 280 281 282 282 283 285 286 287 288
246 246 246 247 247 247 246 246 246 248 250 250 250 250 251 253 254 255 256 256 257 259 261 263 265 267 269 271 272 274 275 276 278 280 280 281 281 281 282 284 285 286 286
247 246 246 247 248 248 247 246 245 246 248 248 249 250 251 253 254 255 255 257 258 259 261 263 265 266 268 270 271 273 275 276 277 279 280 280 281 281 282 283 284 284 284
247 245 245 247 247 249 248 248 248 246 247 248 249 251 251 253 254 254 255 258 259 260 262 264 265 266 267 270 271 273 275 276 277 278 279 280 281 281 282 283 283 283 283
246 246 247 248 249 249 250 250 250 249 250 251 251 252 251 251 252 253 255 258 259 260 262 264 266 267 267 269 271 273 275 276 277 278 278 280 281 281 281 282 283 283 283
248 247 248 249 250 251 251 251 251 251 252 252 253 253 253 253 253 253 255 256 258 260 263 265 267 267 267 269 271 273 275 277 277 278 279 280 281 282 282 282 282 282 282
247 246 248 249 251 253 253 253 252 252 253 254 254 254 254 255 256 255 256 258 260 260 262 264 266 268 268 269 271 273 275 276 277 278 280 280 281 282 282 283 283 282 282
249 248 249 250 252 253 253 252 253 253 253 254 254 254 255 257 258 258 258 260 262 262 263 265 266 268 269 269 271 273 275 276 278 279 280 281 282 282 282 282 283 283 282
252 250 250 252 252 252 252 252 252 253 254 254 255 255 255 256 256 257 258 260 263 263 263 264 267 269 271 271 271 273 275 276 278 279 280 281 281 282 282 282 283 282 283
253 251 252 252 252 252 252 253 252 254 254 255 255 256 256 257 257 258 259 260 262 263 264 265 268 271 271 272 272 272 274 276 277 279 280 280 281 281 282 282 283 283 283
254 252 252 253 253 252 253 254 254 255 255 256 258 259 258 258 260 260 260 262 263 264 266 267 268 269 271 272 273 273 275 277 278 279 279 279 280 281 281 282 283 283 283
255 254 254 254 254 254 255 255 256 257 258 257 259 261 260 260 262 263 262 263 265 266 267 269 269 269 270 272 273 274 276 277 278 278 279 279 280 281 282 282 283 283 283
255 254 255 256 256 256 256 256 257 259 260 260 260 262 264 265 265 264 265 266 267 267 269 270 270 271 272 274 274 275 276 277 278 278 279 280 281 281 282 282 283 283 283
258 258 257 257 257 257 257 256 257 258 260 261 261 262 263 264 265 265 266 267 267 268 269 271 272 272 273 273 274 275 276 276 278 279 280 281 282 282 283 283 284 284 284
258 259 258 256 256 256 255 256 258 259 260 261 261 261 262 263 265 266 267 267 268 268 270 271 272 272 272 273 274 275 276 277 279 280 281 281 282 283 284 284 285 285 285
259 259 260 259 257 256 257 258 258 259 260 261 262 262 263 264 266 267 268 269 269 270 271 271 272 271 272 272 274 276 277 278 279 280 282 283 283 284 285 285 285 286 287
259 260 259 260 259 260 260 261 261 262 262 263 264 264 264 265 266 267 269 270 271 272 272 272 273 274 274 274 274 277 278 278 279 281 282 283 284 285 285 286 286 287 287
260 261 261 261 261 261 262 262 263 264 264 265 265 265 266 266 267 269 270 271 272 273 273 273 274 275 275 276 276 277 278 279 280 281 281 282 283 284 285 286 286 287 286
261 261 262 262 262 263 263 263 265 265 265 265 266 268 268 268 268 269 270 271 273 273 274 274 275 276 277 277 277 278 279 280 281 281 282 282 283 284 285 286 286 286 287
264 263 263 262 263 265 266 266 267 267 267 268 268 268 269 269 269 270 271 272 273 273 274 274 276 278 279 278 278 279 279 280 280 281 282 283 283 284 285 285 286 286 287
267 267 267 267 266 266 267 269 269 269 269 269 269 269 270 270 270 270 271 272 273 274 275 276 278 279 280 280 280 280 280 281 281 281 282 283 283 284 284 285 287 287 288
269 269 269 270 269 269 270 271 270 270 269 269 269 270 270 271 271 271 273 273 274 276 277 278 279 280 281 280 280 281 282 283 284 284 283 283 284 284 285 285 286 288 289
Height
5789 5792 5794 5797 5799 5802 5804 5806 5808 5810 5812 5813 5815 5817 5818 5820 5821 5823 5824 5826 5827 5828 5829 5830 5830 5831 5831 5832 5832 5832 5832 5833 5832 5832 5832 5832 5831 5830 5830 5829 5828 5827 5826
5781 5784 5787 5790 5792 5794 5797 5799 5801 5803 5805 5807 5808 5810 5812 5814 5815 5817 5819 5820 5821 5822 5823 5824 5825 5825 5826 5827 5827 5827 5827 5827 5827 5827 5826 5826 5825 5825 5824 5823 5822 5821 5820
5773 5776 5779 5782 5784 5786 5789 5791 5793 5796 5797 5799 5801 5803 5805 5807 5809 5811 5812 5814 5815 5816 5818 5818 5819 5820 5820 5821 5821 5821 5821 5821 5821 5821 5820 5820 5819 5818 5818 5817 5816 5815 5814
5765 5768 5771 5773 5776 5778 5780 5783 5785 5788 5789 5791 5793 5795 5797 5800 5802 5804 5805 5807 5809 5810 5811 5812 5813 5813 5814 5814 5815 5815 5815 5815 5815 5814 5814 5813 5813 5812 5811 5810 5809 5808 5807
5756 5759 5762 5765 5767 5769 5772 5774 5776 5779 5781 5783 5785 5787 5789 5792 5794 5796 5798 5800 5801 5803 5804 5805 5806 5806 5807 5807 5808 5808 5808 5808 5807 5807 5807 5806 5805 5804 5804 5803 5802 5801 5800
5747 5750 5753 5755 5757 5760 5762 5764 5767 5770 5772 5774 5776 5779 5781 5784 5786 5788 5790 5792 5793 5795 5796 5797 5798 5799 5799 5800 5800 5800 5800 5800 5800 5799 5799 5798 5797 5797 5796 5795 5794 5793 5791
5737 5740 5743 5746 5748 5750 5752 5754 5757 5760 5762 5765 5767 5770 5773 5775 5777 5779 5781 5783 5785 5786 5787 5789 5790 5790 5791 5791 5792 5792 5792 5792 5791 5791 5791 5790 5789 5788 5787 5786 5785 5784 5783
5729 5731 5733 5736 5738 5741 5742 5744 5747 5750 5753 5755 5758 5761 5763 5766 5768 5770 5772 5774 5775 5777 5778 5780 5780 5781 5782 5783 5783 5783 5783 5783 5782 5782 5781 5781 5780 5779 5778 5777 5776 5774 5773
5720 5722 5724 5727 5729 5732 5734 5735 5738 5740 5743 5745 5748 5751 5754 5757 5759 5761 5762 5764 5766 5768 5769 5770 5771 5772 5773 5773 5774 5774 5774 5773 5773 5772 5772 5771 5770 5769 5768 5767 5766 5764 5763
5711 5714 5716 5718 5721 5723 5725 5727 5730 5732 5734 5736 5739 5741 5744 5747 5749 5751 5753 5755 5756 5758 5760 5761 5762 5762 5763 5763 5764 5764 5764 5763 5763 5762 5762 5761 5760 5759 5758 5756 5755 5754 5753
5703 5705 5707 5710 5712 5714 5716 5718 5721 5723 5725 5728 5730 5732 5734 5736 5739 5741 5743 5746 5747 5748 5750 5751 5752 5752 5753 5753 5754 5754 5753 5753 5752 5752 5751 5750 5749 5748 5747 5745 5744 5743 5741
5694 5696 5698 5701 5703 5705 5708 5710 5712 5714 5716 5718 5721 5723 5725 5727 5729 5731 5733 5735 5736 5738 5739 5740 5741 5742 5742 5742 5743 5743 5743 5742 5741 5741 5740 5739 5738 5737 5735 5734 5732 5731 5729
5685 5687 5689 5692 5694 5697 5699 5701 5703 5705 5707 5709 5711 5713 5715 5717 5719 5721 5723 5724 5726 5727 5729 5730 5730 5731 5731 5731 5731 5731 5731 5731 5730 5729 5728 5727 5726 5725 5723 5722 5720 5718 5717
5676 5678 5680 5682 5685 5687 5689 5691 5694 5696 5698 5700 5701 5703 5705 5707 5709 5710 5712 5713 5715 5716 5717 5718 5719 5719 5719 5719 5719 5719 5719 5719 5718 5717 5716 5714 5713 5712 5711 5709 5707 5705 5704
5667 5669 5671 5673 5675 5677 5680 5682 5684 5686 5688 5690 5692 5694 5695 5697 5698 5699 5700 5702 5704 5705 5706 5707 5707 5707 5707 5707 5707 5707 5707 5706 5705 5704 5703 5701 5700 5699 5697 5695 5694 5691 5690
5658 5660 5661 5663 5665 5667 5670 5672 5674 5675 5677 5680 5681 5683 5685 5686 5687 5688 5689 5691 5692 5693 5694 5695 5695 5695 5695 5695 5695 5694 5694 5693 5692 5690 5689 5688 5686 5685 5683 5681 5679 5677 5675
5648 5650 5652 5654 5655 5657 5659 5661 5663 5665 5667 5669 5671 5672 5673 5675 5676 5677 5678 5679 5680 5681 5682 5683 5682 5682 5682 5682 5682 5681 5681 5680 5678 5677 5675 5674 5672 5670 5669 5667 5664 5662 5659
5639 5641 5642 5644 5645 5647 5648 5650 5652 5653 5655 5657 5659 5661 5662 5663 5664 5665 5666 5666 5667 5668 5669 5670 5670 5669 5669 5669 5668 5668 5667 5666 5664 5663 5661 5659 5657 5656 5654 5651 5649 5646 5643
5629 5630 5632 5633 5635 5636 5638 5639 5641 5642 5644 5645 5647 5648 5650 5651 5652 5653 5653 5654 5654 5655 5655 5656 5656 5656 5655 5655 5654 5654 5652 5651 5650 5648 5646 5644 5642 5640 5638 5636 5633 5630 5627
5620 5620 5622 5623 5624 5625 5627 5628 5630 5631 5632 5634 5635 5636 5637 5638 5639 5640 5640 5641 5641 5641 5642 5642 5642 5642 5642 5641 5640 5639 5638 5637 5636 5634 5632 5629 5627 5625 5622 5620 5618 5614 5611
5610 5611 5612 5613 5614 5615 5616 5617 5618 5620 5621 5622 5623 5623 5624 5625 5626 5626 5627 5627 5627 5627 5627 5627 5627 5627 5627 5626 5626 5624 5624 5622 5621 5618 5617 5614 5611 5609 5606 5604 5601 5597 5594
5600 5601 5602 5602 5603 5604 5605 5606 5607 5608 5609 5610 5610 5610 5611 5612 5612 5613 5613 5613 5613 5613 5613 5613 5613 5613 5612 5611 5610 5609 5608 5607 5606 5604 5601 5599 5596 5593 5590 5588 5584 5580 5577
5590 5591 5591 5592 5593 5593 5594 5594 5595 5596 5597 5597 5597 5597 5598 5598 5598 5599 5599 5599 5599 5599 5599 5599 5599 5598 5597 5596 5595 5594 5592 5591 5590 5587 5585 5584 5580 5578 5575 5571 5567 5563 5559
5580 5581 5581 5581 5582 5582 5582 5582 5583 5583 5584 5584 5584 5584 5585 5585 5585 5585 5585 5586 5585 5585 5585 5585 5585 5584 5582 5580 5579 5578 5576 5575 5574 5571 5567 5567 5565 5562 5559 5555 5550 5546 5542
5570 5570 5570 5570 5570 5571 5570 5570 5570 5571 5571 5571 5571 5571 5572 5572 5572 5572 5572 5572 5572 5571 5570 5570 5569 5568 5566 5564 5562 5561 5560 5558 5557 5555 5551 5549 5548 5545 5544 5540 5534 5529 5524
5559 5559 5559 5559 5559 5559 5558 5558 5558 5558 5558 5558 5559 5559 5559 5559 5559 5558 5558 5558 5558 5557 5556 5555 5554 5553 5551 5549 5546 5545 5543 5542 5540 5539 5535 5532 5530 5527 5527 5525 5520 5514 5508